Regional Weather Roundup
Issued by NWS

Home | Current Version | Previous Version | Text Only | Print | Product List | Glossary Off
Versions: 1 2 3 4 5 6 7 8 9 10 11 12 13 14 15 16 17 18 19 20 21 22 23 24 25 26 27 28 29 30 31 32 33 34 35 36 37 38 39 40 41 42 43 44 45 46 47 48 49 50

000
ASUS45 KBOI 230410
RWRID

IDAHO REGIONAL WEATHER ROUNDUP
NATIONAL WEATHER SERVICE BOISE ID
1000 PM MDT MON MAY 22 2017

NOTE: "FAIR" INDICATES FEW OR NO CLOUDS BELOW 12000 FEET
WITH NO SIGNIFICANT WEATHER AND/OR OBSTRUCTIONS TO VISIBILITY

IDZ012-014-230500-
SOUTHWEST IDAHO


CITY           SKY/WX    TMP DP  RH WIND       PRES   REMARKS
BOISE          CLEAR     70  39  32 SE3       30.09S
CALDWELL       CLEAR     71  41  33 S3        30.08S
MOUNTAIN HOME  CLEAR     65  34  31 NW8       30.10R
$$

IDZ016-017-230500-
SOUTHCENTRAL IDAHO


CITY           SKY/WX    TMP DP  RH WIND       PRES   REMARKS
BURLEY         CLEAR     63  40  42 SW7       30.14R
JEROME         CLEAR     64  38  38 SW7       30.14R
TWIN FALLS     CLEAR     56  40  55 SW8       30.16R
$$

IDZ019>023-230500-
SOUTHEAST IDAHO


CITY           SKY/WX    TMP DP  RH WIND       PRES   REMARKS
IDAHO FALLS    CLEAR     62  38  40 NE3       30.21R
POCATELLO      CLOUDY    63  42  46 S10       30.17R
REXBURG        CLEAR     59  36  42 E6        30.22R
$$

IDZ006-010-011-018-031-032-230500-
CENTRAL IDAHO MOUNTAINS


CITY           SKY/WX    TMP DP  RH WIND       PRES   REMARKS
MCCALL         CLEAR     62  27  26 N7        30.20R
HAILEY         CLEAR     59  46  63 NW5       30.21R
STANLEY          N/A     48  31  51 S6        30.29R
SALMON         CLEAR     61  39  44 SE6       30.14R
CHALLIS        CLEAR     65  34  31 NW8       30.20R
$$

IDZ002-004-006-007-026-230500-
NORTHERN IDAHO


CITY           SKY/WX    TMP DP  RH WIND       PRES   REMARKS
LEWISTON       CLEAR     72  48  42 S8        30.05S
LOWELL           N/A     60  52  74 CALM      30.08R
COEUR D`ALENE  CLEAR     71  49  45 CALM      30.10S
MULLAN PASS    CLEAR     56  34  43 NW6       30.27R
$$



USA.gov is the U.S. government's official web portal to all federal, state and local government web resources and services.